Location: Argonnex
(45.9500°N, 6.1333°E)
Time: 13:41:20
(UTC+00:00)

Cosmos 2266 Rocket - Pass Details

Date: 05 August 2024
Orbit: 933 x 1007 km, 82.9° (Epoch: 14 September)

Event Time Altitude Azimuth Distance (km) Brightness Sun altitude
Rises 03:10:52 0° 341° (NNW) 3,604 7.2 -11.4°
Reaches altitude 10° 03:13:46 10° 328° (NNW) 2,653 6.4 -11.0°
Maximum altitude 03:18:30 25° 276° (W) 1,808 5.0 -10.4°
Enters shadow 03:22:41 12° 228° (SW) 2,492 5.5 -9.8°
